Time,TemperatureF,DewpointF,PressureIn,WindDirection,WindDirectionDegrees,WindSpeedMPH,WindSpeedGustMPH,Humidity,HourlyPrecipIn,Conditions,Clouds,dailyrainin,SoftwareType,DateUTC
2013-10-02 00:02:00,37.6,31.4,30.02,WSW,254,1.0,1.0,78,0.00,,,0.00,Wunderground v.1.15,2013-10-02 06:02:00,
2013-10-02 00:07:00,37.3,31.4,30.02,SW,224,1.0,2.0,79,0.00,,,0.00,Wunderground v.1.15,2013-10-02 06:07:00,
2013-10-02 00:12:00,37.0,31.4,30.02,SW,230,2.0,2.0,80,0.00,,,0.00,Wunderground v.1.15,2013-10-02 06:12:00,
2013-10-02 00:17:00,36.8,31.2,30.02,WSW,242,1.0,2.0,80,0.00,,,0.00,Wunderground v.1.15,2013-10-02 06:17:00,
2013-10-02 00:22:00,36.9,31.3,30.02,WSW,238,1.0,2.0,80,0.00,,,0.00,Wunderground v.1.15,2013-10-02 06:22:00,
2013-10-02 00:27:00,36.9,31.0,30.03,WSW,249,1.0,2.0,79,0.00,,,0.00,Wunderground v.1.15,2013-10-02 06:27:00,
2013-10-02 00:32:00,37.0,31.1,30.03,West,273,2.0,2.0,79,0.00,,,0.00,Wunderground v.1.15,2013-10-02 06:32:00,
2013-10-02 00:42:00,37.1,30.9,30.03,West,263,1.0,2.0,78,0.00,,,0.00,Wunderground v.1.15,2013-10-02 06:42:00,
2013-10-02 00:47:00,37.2,31.0,30.03,West,269,1.0,2.0,78,0.00,,,0.00,Wunderground v.1.15,2013-10-02 06:47:00,
2013-10-02 00:52:00,37.2,31.0,30.04,West,262,1.0,1.0,78,0.00,,,0.00,Wunderground v.1.15,2013-10-02 06:52:00,
2013-10-02 00:57:00,37.4,31.2,30.04,West,276,2.0,2.0,78,0.00,,,0.00,Wunderground v.1.15,2013-10-02 06:57:00,
2013-10-02 01:02:00,37.5,31.3,30.05,WNW,287,3.0,3.0,78,0.00,,,0.00,Wunderground v.1.15,2013-10-02 07:02:00,
2013-10-02 01:07:00,37.5,31.6,30.05,NW,314,3.0,11.0,79,0.00,,,0.00,Wunderground v.1.15,2013-10-02 07:07:00,
2013-10-02 01:12:00,36.7,31.7,30.06,NW,308,5.0,5.0,82,0.00,,,0.00,Wunderground v.1.15,2013-10-02 07:12:00,
2013-10-02 01:22:00,35.2,31.7,30.06,SW,236,5.0,5.0,87,0.00,,,0.01,Wunderground v.1.15,2013-10-02 07:22:00,
2013-10-02 01:27:00,35.2,31.7,30.05,WSW,257,4.0,5.0,87,0.00,,,0.01,Wunderground v.1.15,2013-10-02 07:27:00,
2013-10-02 01:32:00,35.4,31.9,30.05,WNW,302,3.0,3.0,87,0.00,,,0.01,Wunderground v.1.15,2013-10-02 07:32:00,
2013-10-02 01:37:00,35.5,32.0,30.05,West,281,1.0,3.0,87,0.00,,,0.01,Wunderground v.1.15,2013-10-02 07:37:00,
2013-10-02 01:42:00,35.5,32.0,30.05,West,274,1.0,1.0,87,0.00,,,0.01,Wunderground v.1.15,2013-10-02 07:42:00,
2013-10-02 01:47:00,35.5,32.0,30.05,West,267,1.0,2.0,87,0.00,,,0.01,Wunderground v.1.15,2013-10-02 07:47:00,
2013-10-02 01:57:00,35.3,31.8,30.05,WSW,242,2.0,3.0,87,0.00,,,0.01,Wunderground v.1.15,2013-10-02 07:57:00,
2013-10-02 02:02:00,35.3,31.8,30.05,West,273,1.0,1.0,87,0.00,,,0.01,Wunderground v.1.15,2013-10-02 08:02:00,
2013-10-02 02:07:00,35.2,31.7,30.05,WNW,282,1.0,2.0,87,0.00,,,0.01,Wunderground v.1.15,2013-10-02 08:07:00,
2013-10-02 02:12:00,35.1,31.6,30.05,WNW,299,1.0,1.0,87,0.00,,,0.01,Wunderground v.1.15,2013-10-02 08:12:00,
2013-10-02 02:17:00,34.9,31.4,30.05,West,271,1.0,1.0,87,0.00,,,0.01,Wunderground v.1.15,2013-10-02 08:17:00,
2013-10-02 02:22:00,34.7,31.2,30.06,West,270,2.0,2.0,87,0.00,,,0.01,Wunderground v.1.15,2013-10-02 08:22:00,
2013-10-02 02:27:00,34.5,31.3,30.06,WNW,288,2.0,2.0,88,0.00,,,0.01,Wunderground v.1.15,2013-10-02 08:27:00,
2013-10-02 02:37:00,34.5,31.0,30.06,West,260,1.0,2.0,87,0.00,,,0.01,Wunderground v.1.15,2013-10-02 08:37:00,
2013-10-02 02:42:00,34.4,30.9,30.06,WSW,255,1.0,1.0,87,0.00,,,0.01,Wunderground v.1.15,2013-10-02 08:42:00,
2013-10-02 02:47:00,34.4,30.9,30.06,SSE,155,1.0,1.0,87,0.00,,,0.01,Wunderground v.1.15,2013-10-02 08:47:00,
2013-10-02 02:52:00,34.3,30.8,30.06,SSE,162,0.0,0.0,87,0.00,,,0.01,Wunderground v.1.15,2013-10-02 08:52:00,
2013-10-02 02:57:00,34.2,30.7,30.06,NW,311,0.0,1.0,87,0.00,,,0.01,Wunderground v.1.15,2013-10-02 08:57:00,
2013-10-02 03:02:00,34.0,30.8,30.06,NW,315,1.0,1.0,88,0.00,,,0.01,Wunderground v.1.15,2013-10-02 09:02:00,
2013-10-02 03:07:00,33.9,30.7,30.06,NW,321,1.0,1.0,88,0.00,,,0.01,Wunderground v.1.15,2013-10-02 09:07:00,
2013-10-02 03:17:00,33.5,30.3,30.06,SW,232,0.0,1.0,88,0.00,,,0.01,Wunderground v.1.15,2013-10-02 09:17:00,
2013-10-02 03:22:00,33.3,30.1,30.06,West,263,0.0,0.0,88,0.00,,,0.01,Wunderground v.1.15,2013-10-02 09:22:00,
2013-10-02 03:27:00,33.3,29.8,30.06,West,271,0.0,1.0,87,0.00,,,0.01,Wunderground v.1.15,2013-10-02 09:27:00,
2013-10-02 03:32:00,33.3,29.3,30.06,West,280,1.0,1.0,85,0.00,,,0.01,Wunderground v.1.15,2013-10-02 09:32:00,
2013-10-02 03:37:00,33.2,29.5,30.06,West,274,0.0,1.0,86,0.00,,,0.01,Wunderground v.1.15,2013-10-02 09:37:00,
2013-10-02 03:42:00,33.1,29.7,30.06,West,276,0.0,2.0,87,0.00,,,0.01,Wunderground v.1.15,2013-10-02 09:42:00,
2013-10-02 03:52:00,33.4,29.4,30.06,WSW,238,2.0,2.0,85,0.00,,,0.01,Wunderground v.1.15,2013-10-02 09:52:00,
2013-10-02 03:57:00,33.6,29.0,30.07,WSW,249,2.0,2.0,83,0.00,,,0.01,Wunderground v.1.15,2013-10-02 09:57:00,
2013-10-02 04:02:00,33.7,28.8,30.07,SW,235,3.0,3.0,82,0.00,,,0.01,Wunderground v.1.15,2013-10-02 10:02:00,
2013-10-02 04:07:00,33.8,28.3,30.07,West,280,3.0,3.0,80,0.00,,,0.01,Wunderground v.1.15,2013-10-02 10:07:00,
2013-10-02 04:12:00,33.8,28.9,30.07,NNE,20,1.0,1.0,82,0.00,,,0.01,Wunderground v.1.15,2013-10-02 10:12:00,
2013-10-02 04:17:00,33.2,29.2,30.07,NE,36,0.0,1.0,85,0.00,,,0.01,Wunderground v.1.15,2013-10-02 10:17:00,
2013-10-02 04:22:00,32.7,29.0,30.07,SE,131,0.0,0.0,86,0.00,,,0.01,Wunderground v.1.15,2013-10-02 10:22:00,
2013-10-02 04:31:00,32.1,28.4,30.08,ESE,115,1.0,1.0,86,0.00,,,0.01,Wunderground v.1.15,2013-10-02 10:31:00,
2013-10-02 04:37:00,32.0,28.6,30.08,ESE,115,0.0,1.0,87,0.00,,,0.01,Wunderground v.1.15,2013-10-02 10:37:00,
2013-10-02 04:42:00,32.0,28.6,30.08,SSW,203,0.0,0.0,87,0.00,,,0.01,Wunderground v.1.15,2013-10-02 10:42:00,
2013-10-02 04:47:00,31.8,28.4,30.08,SSW,204,0.0,0.0,87,0.00,,,0.01,Wunderground v.1.15,2013-10-02 10:47:00,
2013-10-02 04:52:00,31.5,28.1,30.08,SSW,204,0.0,0.0,87,0.00,,,0.01,Wunderground v.1.15,2013-10-02 10:52:00,
2013-10-02 04:57:00,31.3,28.2,30.08,SSW,204,0.0,0.0,88,0.00,,,0.02,Wunderground v.1.15,2013-10-02 10:57:00,
2013-10-02 05:07:00,31.5,28.6,30.09,WSW,246,0.0,1.0,89,0.00,,,0.02,Wunderground v.1.15,2013-10-02 11:07:00,
2013-10-02 05:17:00,32.0,28.6,30.09,West,280,1.0,2.0,87,0.00,,,0.02,Wunderground v.1.15,2013-10-02 11:17:00,
2013-10-02 05:22:00,32.1,28.4,30.09,WSW,254,1.0,3.0,86,0.00,,,0.02,Wunderground v.1.15,2013-10-02 11:22:00,
2013-10-02 05:27:00,32.1,28.7,30.09,WSW,257,2.0,3.0,87,0.00,,,0.02,Wunderground v.1.15,2013-10-02 11:27:00,
2013-10-02 05:32:00,32.4,28.4,30.09,West,263,3.0,3.0,85,0.00,,,0.02,Wunderground v.1.15,2013-10-02 11:32:00,
2013-10-02 05:37:00,32.3,28.3,30.09,SW,233,2.0,3.0,85,0.00,,,0.02,Wunderground v.1.15,2013-10-02 11:37:00,
2013-10-02 05:42:00,32.4,27.8,30.09,WSW,248,0.0,0.0,83,0.00,,,0.02,Wunderground v.1.15,2013-10-02 11:42:00,
2013-10-02 05:52:00,32.4,27.8,30.09,WSW,250,0.0,0.0,83,0.00,,,0.02,Wunderground v.1.15,2013-10-02 11:52:00,
2013-10-02 05:57:00,32.3,27.7,30.08,WSW,250,0.0,1.0,83,0.00,,,0.02,Wunderground v.1.15,2013-10-02 11:57:00,
2013-10-02 06:02:00,32.4,27.5,30.09,West,276,1.0,2.0,82,0.00,,,0.02,Wunderground v.1.15,2013-10-02 12:02:00,
2013-10-02 06:07:00,32.6,27.4,30.09,WNW,284,2.0,2.0,81,0.00,,,0.02,Wunderground v.1.15,2013-10-02 12:07:00,
2013-10-02 06:12:00,32.8,27.6,30.09,West,274,2.0,2.0,81,0.00,,,0.02,Wunderground v.1.15,2013-10-02 12:12:00,
2013-10-02 06:17:00,32.6,27.1,30.09,West,270,1.0,2.0,80,0.00,,,0.02,Wunderground v.1.15,2013-10-02 12:17:00,
2013-10-02 06:22:00,32.3,26.8,30.09,WNW,294,1.0,1.0,80,0.00,,,0.02,Wunderground v.1.15,2013-10-02 12:22:00,
2013-10-02 06:32:00,31.7,27.1,30.09,West,280,1.0,3.0,83,0.00,,,0.02,Wunderground v.1.15,2013-10-02 12:32:00,
2013-10-02 06:37:00,31.4,26.5,30.09,WSW,257,2.0,4.0,82,0.00,,,0.02,Wunderground v.1.15,2013-10-02 12:37:00,
2013-10-02 06:42:00,31.3,25.8,30.09,WNW,283,3.0,3.0,80,0.00,,,0.02,Wunderground v.1.15,2013-10-02 12:42:00,
2013-10-02 06:47:00,31.2,25.7,30.09,West,274,2.0,3.0,80,0.00,,,0.02,Wunderground v.1.15,2013-10-02 12:47:00,
2013-10-02 06:52:00,31.1,25.3,30.09,WNW,285,2.0,4.0,79,0.00,,,0.02,Wunderground v.1.15,2013-10-02 12:52:00,
2013-10-02 06:57:00,31.2,25.4,30.09,WNW,285,3.0,4.0,79,0.00,,,0.02,Wunderground v.1.15,2013-10-02 12:57:00,
2013-10-02 07:02:00,31.1,25.7,30.09,WSW,255,3.0,3.0,80,0.00,,,0.02,Wunderground v.1.15,2013-10-02 13:02:00,
2013-10-02 07:12:00,31.0,25.6,30.10,WSW,243,2.0,2.0,80,0.00,,,0.02,Wunderground v.1.15,2013-10-02 13:12:00,
2013-10-02 07:17:00,31.2,25.7,30.10,WSW,240,2.0,3.0,80,0.00,,,0.02,Wunderground v.1.15,2013-10-02 13:17:00,
2013-10-02 07:22:00,31.4,25.9,30.09,WNW,291,2.0,2.0,80,0.00,,,0.02,Wunderground v.1.15,2013-10-02 13:22:00,
2013-10-02 07:27:00,31.3,25.5,30.09,West,280,1.0,2.0,79,0.00,,,0.02,Wunderground v.1.15,2013-10-02 13:27:00,
2013-10-02 07:32:00,31.1,25.3,30.10,NW,311,1.0,1.0,79,0.00,,,0.02,Wunderground v.1.15,2013-10-02 13:32:00,
2013-10-02 07:37:00,30.7,25.3,30.10,NW,306,0.0,1.0,80,0.00,,,0.02,Wunderground v.1.15,2013-10-02 13:37:00,
2013-10-02 07:47:00,30.1,25.6,30.10,WSW,238,1.0,2.0,83,0.00,,,0.02,Wunderground v.1.15,2013-10-02 13:47:00,
2013-10-02 07:52:00,29.7,25.2,30.10,South,184,1.0,1.0,83,0.00,,,0.02,Wunderground v.1.15,2013-10-02 13:52:00,
2013-10-02 07:57:00,29.4,25.2,30.10,SW,214,1.0,1.0,84,0.00,,,0.02,Wunderground v.1.15,2013-10-02 13:57:00,
2013-10-02 08:02:00,29.3,24.8,30.10,West,281,1.0,2.0,83,0.00,,,0.02,Wunderground v.1.15,2013-10-02 14:02:00,
2013-10-02 08:07:00,29.3,24.8,30.10,West,270,1.0,2.0,83,0.00,,,0.02,Wunderground v.1.15,2013-10-02 14:07:00,
2013-10-02 08:12:00,29.4,24.9,30.10,West,273,1.0,1.0,83,0.00,,,0.02,Wunderground v.1.15,2013-10-02 14:12:00,
2013-10-02 08:17:00,29.5,25.0,30.11,West,263,1.0,1.0,83,0.00,,,0.02,Wunderground v.1.15,2013-10-02 14:17:00,
2013-10-02 08:27:00,29.8,25.0,30.11,West,281,1.0,2.0,82,0.00,,,0.02,Wunderground v.1.15,2013-10-02 14:27:00,
2013-10-02 08:32:00,30.1,25.0,30.11,West,266,1.0,1.0,81,0.00,,,0.02,Wunderground v.1.15,2013-10-02 14:32:00,
2013-10-02 08:37:00,30.4,25.3,30.11,West,273,1.0,2.0,81,0.00,,,0.02,Wunderground v.1.15,2013-10-02 14:37:00,
2013-10-02 08:42:00,30.9,25.8,30.11,WNW,283,1.0,1.0,81,0.00,,,0.02,Wunderground v.1.15,2013-10-02 14:42:00,
2013-10-02 08:47:00,31.6,25.8,30.11,West,274,1.0,1.0,79,0.00,,,0.02,Wunderground v.1.15,2013-10-02 14:47:00,
2013-10-02 08:52:00,32.2,26.1,30.11,WNW,291,2.0,2.0,78,0.00,,,0.02,Wunderground v.1.15,2013-10-02 14:52:00,
2013-10-02 09:01:00,33.1,27.0,30.11,WNW,292,1.0,1.0,78,0.00,,,0.02,Wunderground v.1.15,2013-10-02 15:01:00,
2013-10-02 09:07:00,33.5,27.4,30.11,West,271,1.0,1.0,78,0.00,,,0.02,Wunderground v.1.15,2013-10-02 15:07:00,
2013-10-02 09:12:00,33.8,27.4,30.11,WSW,246,0.0,2.0,77,0.00,,,0.02,Wunderground v.1.15,2013-10-02 15:12:00,
2013-10-02 09:17:00,33.9,27.1,30.11,WNW,282,1.0,2.0,76,0.00,,,0.02,Wunderground v.1.15,2013-10-02 15:17:00,
2013-10-02 09:22:00,34.3,27.2,30.11,WNW,285,1.0,1.0,75,0.00,,,0.02,Wunderground v.1.15,2013-10-02 15:22:00,
2013-10-02 09:27:00,34.7,27.9,30.11,SW,236,1.0,1.0,76,0.00,,,0.02,Wunderground v.1.15,2013-10-02 15:27:00,
2013-10-02 09:32:00,35.3,28.2,30.10,WNW,302,1.0,1.0,75,0.00,,,0.02,Wunderground v.1.15,2013-10-02 15:32:00,
2013-10-02 09:42:00,36.3,28.5,30.10,NNW,329,0.0,0.0,73,0.00,,,0.02,Wunderground v.1.15,2013-10-02 15:42:00,
2013-10-02 09:47:00,37.0,29.5,30.10,NE,56,0.0,0.0,74,0.00,,,0.02,Wunderground v.1.15,2013-10-02 15:47:00,
2013-10-02 09:52:00,38.1,29.9,30.11,East,95,1.0,1.0,72,0.00,,,0.02,Wunderground v.1.15,2013-10-02 15:52:00,
2013-10-02 09:57:00,38.1,28.8,30.10,ENE,58,1.0,1.0,69,0.00,,,0.02,Wunderground v.1.15,2013-10-02 15:57:00,
2013-10-02 10:02:00,38.1,29.2,30.10,ENE,73,1.0,1.0,70,0.00,,,0.02,Wunderground v.1.15,2013-10-02 16:02:00,
2013-10-02 10:07:00,38.8,29.5,30.10,SE,128,1.0,1.0,69,0.00,,,0.02,Wunderground v.1.15,2013-10-02 16:07:00,
2013-10-02 10:12:00,39.5,29.8,30.11,East,94,1.0,1.0,68,0.00,,,0.02,Wunderground v.1.15,2013-10-02 16:12:00,
2013-10-02 10:21:00,39.9,29.1,30.10,SSE,162,1.0,4.0,65,0.00,,,0.02,Wunderground v.1.15,2013-10-02 16:21:00,
2013-10-02 10:27:00,40.0,29.2,30.10,SSW,200,1.0,4.0,65,0.00,,,0.02,Wunderground v.1.15,2013-10-02 16:27:00,
2013-10-02 10:32:00,40.0,29.2,30.10,ESE,107,2.0,2.0,65,0.00,,,0.02,Wunderground v.1.15,2013-10-02 16:32:00,
2013-10-02 10:37:00,39.6,29.9,30.10,SE,135,2.0,2.0,68,0.00,,,0.02,Wunderground v.1.15,2013-10-02 16:37:00,
2013-10-02 10:42:00,39.6,29.2,30.10,South,177,2.0,2.0,66,0.00,,,0.02,Wunderground v.1.15,2013-10-02 16:42:00,
2013-10-02 10:47:00,39.8,29.4,30.10,SSE,149,1.0,2.0,66,0.00,,,0.02,Wunderground v.1.15,2013-10-02 16:47:00,
2013-10-02 10:57:00,39.0,29.3,30.10,ENE,71,2.0,3.0,68,0.00,,,0.02,Wunderground v.1.15,2013-10-02 16:57:00,
2013-10-02 11:07:00,39.5,28.7,30.09,East,98,2.0,3.0,65,0.00,,,0.02,Wunderground v.1.15,2013-10-02 17:07:00,
2013-10-02 11:12:00,39.4,28.2,30.09,SE,142,2.0,2.0,64,0.00,,,0.02,Wunderground v.1.15,2013-10-02 17:12:00,
2013-10-02 11:17:00,39.4,28.6,30.09,ENE,72,2.0,4.0,65,0.00,,,0.02,Wunderground v.1.15,2013-10-02 17:17:00,
2013-10-02 11:22:00,39.2,28.0,30.08,NNE,32,3.0,3.0,64,0.00,,,0.02,Wunderground v.1.15,2013-10-02 17:22:00,
2013-10-02 11:27:00,39.1,27.9,30.08,NE,54,3.0,4.0,64,0.00,,,0.02,Wunderground v.1.15,2013-10-02 17:27:00,
2013-10-02 11:32:00,39.3,28.1,30.08,ENE,58,2.0,2.0,64,0.00,,,0.02,Wunderground v.1.15,2013-10-02 17:32:00,
2013-10-02 11:42:00,39.3,27.7,30.07,East,81,2.0,2.0,63,0.00,,,0.02,Wunderground v.1.15,2013-10-02 17:42:00,
2013-10-02 11:47:00,39.3,28.5,30.07,NE,49,2.0,5.0,65,0.00,,,0.02,Wunderground v.1.15,2013-10-02 17:47:00,
2013-10-02 11:52:00,39.6,28.4,30.07,NE,44,2.0,2.0,64,0.00,,,0.02,Wunderground v.1.15,2013-10-02 17:52:00,
2013-10-02 11:57:00,40.2,29.0,30.07,ENE,57,2.0,3.0,64,0.00,,,0.02,Wunderground v.1.15,2013-10-02 17:57:00,
2013-10-02 12:02:00,40.7,28.3,30.06,NW,326,1.0,2.0,61,0.00,,,0.02,Wunderground v.1.15,2013-10-02 18:02:00,
2013-10-02 12:07:00,40.5,28.5,30.06,NNE,31,1.0,4.0,62,0.00,,,0.02,Wunderground v.1.15,2013-10-02 18:07:00,
2013-10-02 12:12:00,39.9,27.5,30.06,NE,52,2.0,4.0,61,0.00,,,0.02,Wunderground v.1.15,2013-10-02 18:12:00,
2013-10-02 12:22:00,40.1,28.1,30.05,ESE,105,2.0,2.0,62,0.00,,,0.02,Wunderground v.1.15,2013-10-02 18:22:00,
2013-10-02 12:27:00,40.2,26.2,30.05,East,83,2.0,2.0,57,0.00,,,0.02,Wunderground v.1.15,2013-10-02 18:27:00,
2013-10-02 12:32:00,40.6,27.0,30.05,SSE,148,2.0,2.0,58,0.00,,,0.02,Wunderground v.1.15,2013-10-02 18:32:00,
2013-10-02 12:37:00,41.3,27.6,30.05,ESE,105,2.0,2.0,58,0.00,,,0.02,Wunderground v.1.15,2013-10-02 18:37:00,
2013-10-02 12:42:00,42.6,28.0,30.04,South,172,1.0,1.0,56,0.00,,,0.02,Wunderground v.1.15,2013-10-02 18:42:00,
2013-10-02 12:47:00,43.4,27.8,30.04,East,91,1.0,2.0,54,0.00,,,0.02,Wunderground v.1.15,2013-10-02 18:47:00,
2013-10-02 12:52:00,42.4,26.9,30.03,East,98,2.0,2.0,54,0.00,,,0.02,Wunderground v.1.15,2013-10-02 18:52:00,
2013-10-02 13:02:00,42.0,26.5,30.03,NE,46,2.0,2.0,54,0.00,,,0.02,Wunderground v.1.15,2013-10-02 19:02:00,
2013-10-02 13:07:00,42.8,27.7,30.02,NNE,20,2.0,2.0,55,0.00,,,0.02,Wunderground v.1.15,2013-10-02 19:07:00,
2013-10-02 13:12:00,42.8,25.9,30.02,NW,319,1.0,2.0,51,0.00,,,0.02,Wunderground v.1.15,2013-10-02 19:12:00,
2013-10-02 13:17:00,42.6,26.2,30.02,WNW,283,1.0,2.0,52,0.00,,,0.02,Wunderground v.1.15,2013-10-02 19:17:00,
2013-10-02 13:22:00,43.8,27.8,30.01,ENE,58,1.0,1.0,53,0.00,,,0.02,Wunderground v.1.15,2013-10-02 19:22:00,
2013-10-02 13:27:00,44.5,27.0,30.01,NE,46,0.0,1.0,50,0.00,,,0.02,Wunderground v.1.15,2013-10-02 19:27:00,
2013-10-02 13:37:00,43.8,26.3,30.00,ENE,63,1.0,5.0,50,0.00,,,0.02,Wunderground v.1.15,2013-10-02 19:37:00,
2013-10-02 13:42:00,43.6,26.6,30.00,ESE,121,2.0,6.0,51,0.00,,,0.02,Wunderground v.1.15,2013-10-02 19:42:00,
2013-10-02 13:47:00,43.7,25.8,30.00,ESE,114,2.0,6.0,49,0.00,,,0.02,Wunderground v.1.15,2013-10-02 19:47:00,
2013-10-02 13:52:00,43.7,26.3,29.99,South,188,2.0,2.0,50,0.00,,,0.02,Wunderground v.1.15,2013-10-02 19:52:00,
2013-10-02 13:57:00,44.2,26.2,29.99,ENE,72,2.0,2.0,49,0.00,,,0.02,Wunderground v.1.15,2013-10-02 19:57:00,
2013-10-02 14:02:00,44.0,26.0,29.99,NE,50,2.0,2.0,49,0.00,,,0.02,Wunderground v.1.15,2013-10-02 20:02:00,
2013-10-02 14:07:00,43.9,25.5,29.99,ENE,61,1.0,2.0,48,0.00,,,0.02,Wunderground v.1.15,2013-10-02 20:07:00,
2013-10-02 14:17:00,44.4,25.9,29.98,North,11,1.0,1.0,48,0.00,,,0.02,Wunderground v.1.15,2013-10-02 20:17:00,
2013-10-02 14:22:00,44.9,26.9,29.98,ENE,61,1.0,1.0,49,0.00,,,0.02,Wunderground v.1.15,2013-10-02 20:22:00,
2013-10-02 14:27:00,45.5,27.4,29.98,ESE,112,2.0,7.0,49,0.00,,,0.02,Wunderground v.1.15,2013-10-02 20:27:00,
2013-10-02 14:32:00,45.2,26.1,29.98,East,80,3.0,5.0,47,0.00,,,0.02,Wunderground v.1.15,2013-10-02 20:32:00,
2013-10-02 14:42:00,45.4,25.3,29.97,ENE,68,2.0,2.0,45,0.00,,,0.02,Wunderground v.1.15,2013-10-02 20:42:00,
2013-10-02 14:47:00,45.3,25.7,29.97,NE,54,2.0,3.0,46,0.00,,,0.02,Wunderground v.1.15,2013-10-02 20:47:00,
2013-10-02 14:52:00,45.5,26.4,29.97,NW,325,2.0,2.0,47,0.00,,,0.02,Wunderground v.1.15,2013-10-02 20:52:00,
2013-10-02 14:57:00,46.3,26.1,29.96,ENE,61,2.0,10.0,45,0.00,,,0.02,Wunderground v.1.15,2013-10-02 20:57:00,
2013-10-02 15:02:00,45.8,25.6,29.96,ESE,121,3.0,3.0,45,0.00,,,0.02,Wunderground v.1.15,2013-10-02 21:02:00,
2013-10-02 15:07:00,46.2,24.9,29.96,East,93,3.0,3.0,43,0.00,,,0.02,Wunderground v.1.15,2013-10-02 21:07:00,
2013-10-02 15:16:00,46.2,25.5,29.95,East,96,2.0,2.0,44,0.00,,,0.02,Wunderground v.1.15,2013-10-02 21:16:00,
2013-10-02 15:22:00,46.4,25.1,29.95,NE,52,2.0,2.0,43,0.00,,,0.02,Wunderground v.1.15,2013-10-02 21:22:00,
2013-10-02 15:27:00,46.0,24.2,29.95,ENE,64,2.0,2.0,42,0.00,,,0.02,Wunderground v.1.15,2013-10-02 21:27:00,
2013-10-02 15:32:00,45.8,24.0,29.95,ENE,57,3.0,3.0,42,0.00,,,0.02,Wunderground v.1.15,2013-10-02 21:32:00,
2013-10-02 15:37:00,46.4,24.5,29.94,ENE,62,1.0,4.0,42,0.00,,,0.02,Wunderground v.1.15,2013-10-02 21:37:00,
2013-10-02 15:42:00,45.9,24.6,29.94,ENE,63,2.0,4.0,43,0.00,,,0.02,Wunderground v.1.15,2013-10-02 21:42:00,
2013-10-02 15:47:00,45.7,25.0,29.94,ENE,63,3.0,4.0,44,0.00,,,0.02,Wunderground v.1.15,2013-10-02 21:47:00,
2013-10-02 15:57:00,46.4,25.6,29.94,East,98,1.0,2.0,44,0.00,,,0.02,Wunderground v.1.15,2013-10-02 21:57:00,
2013-10-02 16:02:00,46.7,26.5,29.93,NNE,19,2.0,2.0,45,0.00,,,0.02,Wunderground v.1.15,2013-10-02 22:02:00,
2013-10-02 16:07:00,47.0,26.2,29.93,NE,46,2.0,4.0,44,0.00,,,0.02,Wunderground v.1.15,2013-10-02 22:07:00,
2013-10-02 16:12:00,46.7,25.4,29.93,ENE,74,2.0,2.0,43,0.00,,,0.02,Wunderground v.1.15,2013-10-02 22:12:00,
2013-10-02 16:17:00,46.8,26.0,29.93,NW,316,2.0,2.0,44,0.00,,,0.02,Wunderground v.1.15,2013-10-02 22:17:00,
2013-10-02 16:22:00,47.5,24.3,29.93,ENE,59,2.0,5.0,40,0.00,,,0.02,Wunderground v.1.15,2013-10-02 22:22:00,
2013-10-02 16:32:00,46.6,24.7,29.92,NW,311,3.0,3.0,42,0.00,,,0.02,Wunderground v.1.15,2013-10-02 22:32:00,
2013-10-02 16:37:00,47.0,24.5,29.92,NE,39,2.0,3.0,41,0.00,,,0.02,Wunderground v.1.15,2013-10-02 22:37:00,
2013-10-02 16:42:00,46.8,24.3,29.92,NNE,33,2.0,2.0,41,0.00,,,0.02,Wunderground v.1.15,2013-10-02 22:42:00,
2013-10-02 16:47:00,46.7,23.6,29.92,ENE,69,1.0,2.0,40,0.00,,,0.02,Wunderground v.1.15,2013-10-02 22:47:00,
2013-10-02 16:56:00,46.5,24.0,29.92,SE,145,1.0,1.0,41,0.00,,,0.02,Wunderground v.1.15,2013-10-02 22:56:00,
2013-10-02 17:02:00,46.4,23.9,29.92,SSE,160,1.0,1.0,41,0.00,,,0.02,Wunderground v.1.15,2013-10-02 23:02:00,
2013-10-02 17:07:00,46.5,24.0,29.92,ESE,119,1.0,1.0,41,0.00,,,0.02,Wunderground v.1.15,2013-10-02 23:07:00,
2013-10-02 17:12:00,47.0,24.5,29.91,ENE,68,1.0,1.0,41,0.00,,,0.02,Wunderground v.1.15,2013-10-02 23:12:00,
2013-10-02 17:17:00,47.2,24.7,29.91,East,96,0.0,1.0,41,0.00,,,0.02,Wunderground v.1.15,2013-10-02 23:17:00,
2013-10-02 17:22:00,47.4,24.9,29.91,NE,53,0.0,0.0,41,0.00,,,0.02,Wunderground v.1.15,2013-10-02 23:22:00,
2013-10-02 17:27:00,47.0,23.9,29.91,NE,53,1.0,2.0,40,0.00,,,0.02,Wunderground v.1.15,2013-10-02 23:27:00,
2013-10-02 17:37:00,46.3,23.3,29.91,NE,44,1.0,1.0,40,0.00,,,0.02,Wunderground v.1.15,2013-10-02 23:37:00,
2013-10-02 17:42:00,46.4,23.9,29.90,NE,45,0.0,0.0,41,0.00,,,0.02,Wunderground v.1.15,2013-10-02 23:42:00,
2013-10-02 17:47:00,46.3,25.0,29.90,NE,46,0.0,0.0,43,0.00,,,0.02,Wunderground v.1.15,2013-10-02 23:47:00,
2013-10-02 17:52:00,46.3,23.9,29.90,NW,313,0.0,0.0,41,0.00,,,0.02,Wunderground v.1.15,2013-10-02 23:52:00,
2013-10-02 17:57:00,46.0,23.0,29.90,NW,314,0.0,0.0,40,0.00,,,0.02,Wunderground v.1.15,2013-10-02 23:57:00,
2013-10-02 18:02:00,46.1,23.7,29.90,NW,314,0.0,0.0,41,0.00,,,0.02,Wunderground v.1.15,2013-10-03 00:02:00,
2013-10-02 18:07:00,46.0,23.6,29.90,ENE,70,0.0,1.0,41,0.00,,,0.02,Wunderground v.1.15,2013-10-03 00:07:00,
2013-10-02 18:17:00,45.4,23.6,29.90,East,100,2.0,5.0,42,0.00,,,0.02,Wunderground v.1.15,2013-10-03 00:17:00,
2013-10-02 18:22:00,45.1,24.5,29.90,NE,51,3.0,7.0,44,0.00,,,0.02,Wunderground v.1.15,2013-10-03 00:22:00,
2013-10-02 18:27:00,44.7,25.7,29.90,NE,45,4.0,7.0,47,0.00,,,0.02,Wunderground v.1.15,2013-10-03 00:27:00,
2013-10-02 18:32:00,44.4,26.4,29.90,ENE,65,5.0,5.0,49,0.00,,,0.02,Wunderground v.1.15,2013-10-03 00:32:00,
2013-10-02 18:37:00,44.1,26.6,29.90,NE,50,4.0,5.0,50,0.00,,,0.02,Wunderground v.1.15,2013-10-03 00:37:00,
2013-10-02 18:46:00,43.8,26.8,29.90,ENE,66,2.0,2.0,51,0.00,,,0.02,Wunderground v.1.15,2013-10-03 00:46:00,
2013-10-02 18:52:00,43.7,26.7,29.90,ENE,69,1.0,1.0,51,0.00,,,0.02,Wunderground v.1.15,2013-10-03 00:52:00,
2013-10-02 18:57:00,43.5,27.0,29.90,ENE,70,0.0,1.0,52,0.00,,,0.02,Wunderground v.1.15,2013-10-03 00:57:00,
2013-10-02 19:02:00,43.3,25.9,29.90,ENE,70,0.0,0.0,50,0.00,,,0.02,Wunderground v.1.15,2013-10-03 01:02:00,
2013-10-02 19:07:00,43.1,26.2,29.90,ENE,70,0.0,0.0,51,0.00,,,0.02,Wunderground v.1.15,2013-10-03 01:07:00,
2013-10-02 19:12:00,42.9,26.5,29.90,ENE,70,0.0,0.0,52,0.00,,,0.02,Wunderground v.1.15,2013-10-03 01:12:00,
2013-10-02 19:17:00,42.6,27.5,29.90,ENE,69,0.0,0.0,55,0.00,,,0.02,Wunderground v.1.15,2013-10-03 01:17:00,
2013-10-02 19:27:00,42.0,27.0,29.90,ENE,70,0.0,0.0,55,0.00,,,0.02,Wunderground v.1.15,2013-10-03 01:27:00,
2013-10-02 19:32:00,41.7,27.1,29.90,ENE,70,0.0,0.0,56,0.00,,,0.02,Wunderground v.1.15,2013-10-03 01:32:00,
2013-10-02 19:37:00,41.5,27.4,29.90,ENE,70,0.0,0.0,57,0.00,,,0.02,Wunderground v.1.15,2013-10-03 01:37:00,
2013-10-02 19:42:00,41.3,26.8,29.90,West,267,0.0,0.0,56,0.00,,,0.02,Wunderground v.1.15,2013-10-03 01:42:00,
2013-10-02 19:47:00,41.2,27.1,29.90,WSW,250,0.0,0.0,57,0.00,,,0.02,Wunderground v.1.15,2013-10-03 01:47:00,
2013-10-02 19:52:00,41.2,27.1,29.90,WSW,250,0.0,0.0,57,0.00,,,0.02,Wunderground v.1.15,2013-10-03 01:52:00,
2013-10-02 20:01:00,40.8,27.2,29.89,West,266,1.0,1.0,58,0.00,,,0.02,Wunderground v.1.15,2013-10-03 02:01:00,
2013-10-02 20:07:00,40.7,27.1,29.90,West,271,1.0,1.0,58,0.00,,,0.02,Wunderground v.1.15,2013-10-03 02:07:00,
2013-10-02 20:12:00,40.7,26.6,29.90,WNW,301,1.0,1.0,57,0.00,,,0.02,Wunderground v.1.15,2013-10-03 02:12:00,
2013-10-02 20:17:00,40.6,27.0,29.90,WNW,285,1.0,1.0,58,0.00,,,0.02,Wunderground v.1.15,2013-10-03 02:17:00,
2013-10-02 20:22:00,40.7,27.5,29.90,West,271,1.0,1.0,59,0.00,,,0.02,Wunderground v.1.15,2013-10-03 02:22:00,
2013-10-02 20:27:00,40.9,27.2,29.90,West,273,1.0,1.0,58,0.00,,,0.02,Wunderground v.1.15,2013-10-03 02:27:00,
2013-10-02 20:32:00,40.9,26.4,29.89,West,262,1.0,1.0,56,0.00,,,0.02,Wunderground v.1.15,2013-10-03 02:32:00,
2013-10-02 20:41:00,41.2,27.1,29.90,West,267,0.0,1.0,57,0.00,,,0.02,Wunderground v.1.15,2013-10-03 02:41:00,
2013-10-02 20:46:00,41.2,27.1,29.90,West,276,1.0,1.0,57,0.00,,,0.02,Wunderground v.1.15,2013-10-03 02:46:00,
2013-10-02 20:52:00,41.2,26.7,29.90,WSW,252,1.0,1.0,56,0.00,,,0.02,Wunderground v.1.15,2013-10-03 02:52:00,
2013-10-02 20:57:00,41.3,26.8,29.90,WSW,250,0.0,1.0,56,0.00,,,0.02,Wunderground v.1.15,2013-10-03 02:57:00,
2013-10-02 21:02:00,41.2,26.2,29.90,SSE,153,0.0,0.0,55,0.00,,,0.02,Wunderground v.1.15,2013-10-03 03:02:00,
2013-10-02 21:07:00,41.3,25.9,29.90,SSW,210,0.0,0.0,54,0.00,,,0.02,Wunderground v.1.15,2013-10-03 03:07:00,
2013-10-02 21:12:00,41.3,25.9,29.90,NE,49,0.0,0.0,54,0.00,,,0.02,Wunderground v.1.15,2013-10-03 03:12:00,
2013-10-02 21:21:00,41.9,26.0,29.90,ESE,113,1.0,1.0,53,0.00,,,0.02,Wunderground v.1.15,2013-10-03 03:21:00,
2013-10-02 21:27:00,42.0,26.1,29.90,East,82,1.0,1.0,53,0.00,,,0.02,Wunderground v.1.15,2013-10-03 03:27:00,
2013-10-02 21:32:00,41.9,26.4,29.90,ENE,65,1.0,4.0,54,0.00,,,0.02,Wunderground v.1.15,2013-10-03 03:32:00,
2013-10-02 21:37:00,41.7,26.7,29.90,East,79,1.0,4.0,55,0.00,,,0.02,Wunderground v.1.15,2013-10-03 03:37:00,
2013-10-02 21:42:00,41.6,26.2,29.90,East,99,2.0,4.0,54,0.00,,,0.02,Wunderground v.1.15,2013-10-03 03:42:00,
2013-10-02 21:47:00,41.6,27.1,29.90,ESE,110,3.0,4.0,56,0.00,,,0.02,Wunderground v.1.15,2013-10-03 03:47:00,
2013-10-02 21:57:00,41.4,26.4,29.90,NE,52,1.0,2.0,55,0.00,,,0.02,Wunderground v.1.15,2013-10-03 03:57:00,
2013-10-02 22:01:00,41.4,26.9,29.90,ESE,108,1.0,1.0,56,0.00,,,0.02,Wunderground v.1.15,2013-10-03 04:01:00,
2013-10-02 22:07:00,41.7,24.9,29.90,NE,54,2.0,3.0,51,0.00,,,0.02,Wunderground v.1.15,2013-10-03 04:07:00,
2013-10-02 22:12:00,42.1,25.7,29.89,ENE,58,2.0,2.0,52,0.00,,,0.02,Wunderground v.1.15,2013-10-03 04:12:00,
2013-10-02 22:17:00,42.1,25.3,29.89,WNW,301,2.0,2.0,51,0.00,,,0.02,Wunderground v.1.15,2013-10-03 04:17:00,
2013-10-02 22:22:00,42.0,25.2,29.89,NE,52,2.0,2.0,51,0.00,,,0.02,Wunderground v.1.15,2013-10-03 04:22:00,
2013-10-02 22:27:00,42.0,25.2,29.89,ENE,68,1.0,2.0,51,0.00,,,0.02,Wunderground v.1.15,2013-10-03 04:27:00,
2013-10-02 22:32:00,42.0,25.2,29.89,NE,41,1.0,6.0,51,0.00,,,0.02,Wunderground v.1.15,2013-10-03 04:32:00,
2013-10-02 22:41:00,42.0,24.7,29.89,WNW,297,2.0,2.0,50,0.00,,,0.02,Wunderground v.1.15,2013-10-03 04:41:00,
2013-10-02 22:47:00,41.9,25.1,29.89,WNW,284,2.0,2.0,51,0.00,,,0.02,Wunderground v.1.15,2013-10-03 04:47:00,
2013-10-02 22:52:00,41.9,25.5,29.89,ENE,73,3.0,4.0,52,0.00,,,0.02,Wunderground v.1.15,2013-10-03 04:52:00,
2013-10-02 22:57:00,41.9,26.0,29.89,ENE,57,3.0,4.0,53,0.00,,,0.02,Wunderground v.1.15,2013-10-03 04:57:00,
2013-10-02 23:02:00,41.8,26.4,29.89,ENE,66,2.0,3.0,54,0.00,,,0.02,Wunderground v.1.15,2013-10-03 05:02:00,
2013-10-02 23:07:00,41.4,26.0,29.89,East,85,3.0,4.0,54,0.00,,,0.02,Wunderground v.1.15,2013-10-03 05:07:00,
2013-10-02 23:12:00,41.1,27.0,29.88,ESE,108,3.0,3.0,57,0.00,,,0.02,Wunderground v.1.15,2013-10-03 05:12:00,
2013-10-02 23:22:00,40.8,27.2,29.88,ENE,63,2.0,2.0,58,0.00,,,0.02,Wunderground v.1.15,2013-10-03 05:22:00,
2013-10-02 23:27:00,40.7,27.5,29.88,ENE,58,1.0,2.0,59,0.00,,,0.02,Wunderground v.1.15,2013-10-03 05:27:00,
2013-10-02 23:32:00,40.6,27.0,29.88,East,86,0.0,0.0,58,0.00,,,0.02,Wunderground v.1.15,2013-10-03 05:32:00,
2013-10-02 23:37:00,40.7,26.6,29.88,East,96,1.0,1.0,57,0.00,,,0.02,Wunderground v.1.15,2013-10-03 05:37:00,
2013-10-02 23:42:00,40.6,26.1,29.88,East,97,1.0,1.0,56,0.00,,,0.02,Wunderground v.1.15,2013-10-03 05:42:00,
2013-10-02 23:47:00,40.6,26.5,29.88,East,92,1.0,1.0,57,0.00,,,0.02,Wunderground v.1.15,2013-10-03 05:47:00,
2013-10-02 23:52:00,40.6,26.1,29.88,ENE,65,1.0,1.0,56,0.00,,,0.02,Wunderground v.1.15,2013-10-03 05:52:00,